Total_Precipitation_Accumulation
0.13 0.13 0.14 0.13 0.12 0.11 0.11 0.12 0.13 0.09 0.04 0.02 0.04 0.06 0.09 0.14 0.17 0.15 0.14 0.13 0.13 0.15 0.18 0.19 0.23 0.29 0.37 0.50 0.71 0.90 0.92 0.66 0.33 0.14 0.06 0.07 0.05 0.03
0.16 0.18 0.20 0.22 0.21 0.19 0.17 0.15 0.14 0.12 0.07 0.03 0.03 0.07 0.12 0.15 0.20 0.16 0.16 0.16 0.13 0.12 0.13 0.17 0.20 0.28 0.37 0.44 0.51 0.63 0.77 0.88 0.69 0.41 0.23 0.17 0.11 0.06
0.20 0.26 0.30 0.32 0.35 0.33 0.29 0.24 0.19 0.16 0.11 0.04 0.02 0.05 0.13 0.18 0.19 0.18 0.19 0.15 0.11 0.10 0.10 0.13 0.17 0.23 0.34 0.42 0.47 0.51 0.62 0.73 0.80 0.65 0.46 0.31 0.19 0.10
0.32 0.33 0.34 0.38 0.41 0.41 0.41 0.36 0.26 0.19 0.14 0.09 0.04 0.04 0.09 0.19 0.23 0.21 0.20 0.16 0.11 0.09 0.08 0.09 0.12 0.18 0.27 0.36 0.42 0.46 0.53 0.61 0.69 0.67 0.53 0.36 0.23 0.15
0.56 0.54 0.49 0.45 0.44 0.44 0.46 0.43 0.35 0.26 0.19 0.14 0.08 0.05 0.07 0.16 0.25 0.26 0.23 0.18 0.13 0.10 0.08 0.07 0.09 0.13 0.19 0.25 0.32 0.37 0.40 0.44 0.51 0.63 0.63 0.46 0.26 0.17
0.63 0.67 0.67 0.67 0.60 0.53 0.49 0.46 0.43 0.35 0.26 0.20 0.14 0.09 0.09 0.15 0.27 0.29 0.24 0.19 0.15 0.11 0.09 0.06 0.06 0.08 0.11 0.13 0.15 0.22 0.32 0.43 0.51 0.57 0.59 0.49 0.33 0.23
0.42 0.49 0.59 0.71 0.73 0.69 0.63 0.52 0.46 0.42 0.36 0.28 0.22 0.17 0.14 0.18 0.27 0.32 0.31 0.26 0.20 0.15 0.11 0.05 0.04 0.03 0.06 0.10 0.14 0.18 0.24 0.29 0.34 0.40 0.43 0.42 0.35 0.28
0.27 0.30 0.34 0.48 0.54 0.60 0.66 0.59 0.54 0.52 0.50 0.45 0.34 0.26 0.20 0.21 0.27 0.35 0.36 0.33 0.27 0.18 0.14 0.11 0.07 0.06 0.05 0.06 0.11 0.13 0.15 0.19 0.22 0.24 0.26 0.28 0.28 0.25
0.16 0.17 0.18 0.27 0.31 0.33 0.41 0.43 0.48 0.55 0.62 0.63 0.59 0.47 0.32 0.24 0.27 0.35 0.37 0.33 0.28 0.26 0.23 0.24 0.21 0.15 0.10 0.10 0.13 0.13 0.12 0.13 0.15 0.17 0.17 0.18 0.18 0.17
0.12 0.10 0.07 0.13 0.20 0.21 0.24 0.30 0.37 0.49 0.65 0.73 0.77 0.71 0.54 0.38 0.32 0.41 0.46 0.38 0.35 0.39 0.37 0.42 0.42 0.30 0.22 0.19 0.18 0.14 0.12 0.11 0.11 0.12 0.13 0.12 0.10 0.10
0.11 0.13 0.07 0.04 0.10 0.07 0.10 0.16 0.21 0.33 0.46 0.59 0.63 0.62 0.58 0.55 0.50 0.50 0.57 0.51 0.53 0.60 0.54 0.54 0.61 0.52 0.42 0.37 0.32 0.23 0.16 0.12 0.10 0.09 0.08 0.08 0.07 0.06
0.07 0.09 0.12 0.07 0.06 0.03 0.03 0.06 0.10 0.17 0.23 0.29 0.35 0.39 0.43 0.47 0.54 0.61 0.70 0.68 0.68 0.76 0.66 0.53 0.63 0.63 0.67 0.60 0.41 0.26 0.19 0.17 0.13 0.09 0.07 0.05 0.04 0.04
0.07 0.09 0.10 0.07 0.04 0.02 0.01 0.02 0.05 0.05 0.08 0.15 0.21 0.28 0.36 0.43 0.53 0.66 0.74 0.75 0.72 0.73 0.64 0.49 0.52 0.48 0.51 0.60 0.50 0.33 0.19 0.14 0.12 0.10 0.07 0.05 0.03 0.02
0.07 0.08 0.08 0.04 0.02 0.01 0.01 0.01 0.01 0.01 0.02 0.05 0.09 0.16 0.27 0.39 0.50 0.63 0.75 0.79 0.78 0.73 0.59 0.40 0.37 0.33 0.27 0.31 0.39 0.35 0.23 0.14 0.09 0.07 0.05 0.05 0.04 0.03
0.16 0.12 0.04 0.00 0.00 0.00 0.00 0.00 0.00 0.00 0.01 0.02 0.05 0.10 0.19 0.31 0.37 0.45 0.57 0.68 0.69 0.67 0.59 0.48 0.37 0.30 0.24 0.20 0.19 0.21 0.20 0.17 0.12 0.08 0.06 0.04 0.03 0.02
0.11 0.09 0.02 0.00 0.00 0.00 0.00 0.00 0.00 0.00 0.00 0.01 0.02 0.05 0.10 0.17 0.25 0.34 0.42 0.53 0.59 0.65 0.65 0.60 0.50 0.39 0.33 0.25 0.17 0.15 0.13 0.13 0.11 0.08 0.06 0.05 0.03 0.02
0.06 0.02 0.00 0.00 0.00 0.00 0.00 0.00 0.00 0.00 0.00 0.00 0.01 0.02 0.05 0.10 0.17 0.25 0.34 0.42 0.49 0.56 0.64 0.68 0.59 0.47 0.41 0.35 0.28 0.19 0.13 0.09 0.07 0.05 0.05 0.04 0.03 0.01
0.04 0.01 0.00 0.00 0.00 0.00 0.00 0.00 0.00 0.00 0.00 0.00 0.00 0.01 0.03 0.06 0.11 0.17 0.25 0.33 0.39 0.43 0.47 0.55 0.55 0.47 0.44 0.46 0.36 0.23 0.14 0.10 0.08 0.06 0.04 0.03 0.02 0.01
0.00 0.00 0.00 0.00 0.00 0.00 0.00 0.00 0.00 0.00 0.00 0.00 0.00 0.00 0.01 0.03 0.06 0.11 0.16 0.22 0.29 0.33 0.36 0.38 0.40 0.37 0.31 0.34 0.38 0.24 0.14 0.10 0.08 0.06 0.04 0.02 0.02 0.01
0.00 0.00 0.00 0.00 0.00 0.00 0.00 0.00 0.00 0.00 0.00 0.00 0.00 0.00 0.00 0.01 0.03 0.06 0.09 0.13 0.19 0.23 0.26 0.28 0.31 0.30 0.21 0.12 0.12 0.16 0.13 0.08 0.05 0.04 0.03 0.02 0.01 0.00
0.00 0.00 0.00 0.00 0.00 0.00 0.00 0.00 0.00 0.00 0.00 0.00 0.00 0.00 0.00 0.00 0.01 0.02 0.04 0.06 0.09 0.13 0.16 0.19 0.21 0.21 0.16 0.09 0.05 0.05 0.05 0.05 0.04 0.02 0.02 0.01 0.01 0.00
0.00 0.00 0.00 0.00 0.00 0.00 0.00 0.00 0.00 0.00 0.00 0.00 0.00 0.00 0.00 0.00 0.00 0.01 0.01 0.02 0.04 0.06 0.08 0.09 0.10 0.11 0.11 0.10 0.07 0.04 0.02 0.01 0.01 0.01 0.01 0.00 0.01 0.01
0.00 0.00 0.00 0.00 0.00 0.00 0.00 0.00 0.00 0.00 0.00 0.00 0.00 0.00 0.00 0.00 0.00 0.00 0.00 0.01 0.01 0.02 0.03 0.03 0.03 0.03 0.04 0.04 0.04 0.03 0.01 0.01 0.01 0.00 0.00 0.00 0.00 0.00